Regional Weather Roundup
Issued by NWS

Home | Current Version | Previous Version | Text Only | Print | Product List | Glossary On
Versions: 1 2 3 4 5 6 7 8 9 10 11 12 13 14 15 16 17 18 19 20 21 22 23 24 25 26 27 28 29 30 31 32 33 34 35 36 37 38 39 40 41 42 43 44 45 46 47 48 49 50
000
ASUS43 KIND 240409
RWRIN

WEATHER ROUNDUP FOR INDIANA
NATIONAL WEATHER SERVICE INDIANAPOLIS IN
1100 PM EST FRI FEB 23 2018

NOTE: "FAIR" INDICATES FEW OR NO CLOUDS BELOW 12,000 FEET WITH NO
SIGNIFICANT WEATHER AND/OR OBSTRUCTIONS TO VISIBILITY.

* - STATION DOES NOT REPORT WEATHER SUCH AS PRECIPITATION OR FOG.

+ - STATION NOT QUALITY CONTROLLED BY THE NATIONAL WEATHER SERVICE.
    USE DATA WITH CAUTION...ESPECIALLY DEWPOINT AND RELATIVE
    HUMIDITY OBSERVATIONS.

INZ001>003-010>013-019-020-240500-
NORTHWEST INDIANA

CITY           SKY/WX    TMP DP  RH WIND       PRES   REMARKS
GARY /AIRPORT/ CLOUDY    39  34  81 W5        30.27R WCI  36
LA PORTE +     CLOUDY    37  33  87 CALM      30.27S
MICHIGAN CITY+ CLOUDY    36  34  93 CALM      30.27S
MONTICELLO +   CLOUDY    38  37  95 NW7       30.25S WCI  33
RENSSELAER +   CLOUDY    37  34  87 NW7       30.25F WCI  32
VALPARAISO     CLOUDY    38  34  85 W3        30.27R

$$

LMZ046-743>745-240500-
SOUTHERN LAKE MICHIGAN

STATION/POSITION TIME  TEMP    WIND        PRES    WAVE
                       AIR SEA DIR/SP/G            HT
                 (UTC) (F)     (DEG/KT/KT) (MB)    (FT)
BURNS HARBOR     0400   36     240/  4/  4 1025.4
MICHIGAN CITY    0340   36     230/  6/  6   N/A

$$

INZ004-005-014>016-021>024-240500-
NORTH CENTRAL INDIANA

CITY           SKY/WX    TMP DP  RH WIND       PRES   REMARKS
GOSHEN         CLOUDY    38  35  89 NW9       30.25R WCI  31
LOGANSPORT +   CLOUDY    37  36  93 W5        30.26S WCI  34
PERU/GRISSOM   CLOUDY    40  40 100 W7        30.23F WCI  35
ROCHESTER +    CLOUDY    41  39  93 N7        30.25F
SOUTH BEND     CLOUDY    36  32  85 NW7       30.26S WCI  30
WARSAW +       CLOUDY    37  37 100 N7        30.25S WCI  32

$$

INZ006>009-017-018-025>027-240500-
NORTHEAST INDIANA

CITY           SKY/WX    TMP DP  RH WIND       PRES   REMARKS
AUBURN +       CLOUDY    41  37  87 W7        30.24F
FORT WAYNE     CLOUDY    43  40  89 W7        30.23F
HUNTINGTON +   CLOUDY    40  39  97 W7        30.23F WCI  35
KENDALLVILLE + CLOUDY    39  38  97 NW3       30.24R FOG

$$

INZ028-029-035-036-043>045-051>053-240500-
WEST CENTRAL INDIANA

CITY           SKY/WX    TMP DP  RH WIND       PRES   REMARKS
CRAWFORDSVL +  CLOUDY    39  39 100 NW8         N/A  WCI  34
GREENCASTLE +  CLOUDY    43  41  93 N6        30.21F FOG
LAFAYETTE      CLOUDY    39  38  96 NW5       30.25F WCI  36
TERRE HAUTE    LGT RAIN  44  42  93 N7        30.22F

$$

INZ030>032-037>040-046>048-054>057-064-065-240500-
CENTRAL INDIANA

CITY           SKY/WX    TMP DP  RH WIND       PRES   REMARKS
GREENWOOD *+   CLOUDY    44 -45   2 N6        30.22F
INDIANAPOLIS   CLOUDY    45  42  89 N10       30.21F
-EAGLE CREEK   CLOUDY    45  42  89 N6        30.20F
KOKOMO +       CLOUDY    41  40  96 NW7       30.25F FOG
MARION +       CLOUDY    42  40  95 CALM      30.24F
MT COMFORT *+  CLOUDY    45  45 100 N9        30.21F
SHELBYVILLE    CLOUDY    48  44  86 N7        30.20F
ZIONSVILLE +   CLOUDY    42  41  99 N6        30.22F

$$

INZ033-034-041-042-049-050-058-059-240500-
EAST CENTRAL INDIANA

CITY           SKY/WX    TMP DP  RH WIND       PRES   REMARKS
MUNCIE         CLOUDY    45  42  89 NW8       30.23F
RICHMOND +     CLOUDY    46  46 100 N8        30.21F

$$

INZ060-061-067>069-081>083-085>088-240500-
SOUTHWEST INDIANA

CITY           SKY/WX    TMP DP  RH WIND       PRES   REMARKS
EVANSVILLE     MOCLDY    49  48  97 CALM      30.20F
HUNTINGBURG +  MOCLDY    49  47  93 CALM      30.20F
WASHINGTON +   FAIR      48  46  94 N6        30.20F

$$

INZ062-063-066-070>080-084-089>092-240500-
SOUTH CENTRAL AND SOUTHEAST INDIANA

CITY           SKY/WX    TMP DP  RH WIND       PRES   REMARKS
BATESVILLE +   CLOUDY    50  50 100 MISG      30.21R
BEDFORD +      FAIR      48  46  93 CALM      30.19F
BLOOMINGTON    CLOUDY    49  46  90 N6        30.20F
FRENCH LICK *+ FAIR      46 N/A N/A CALM      30.19F
MADISON *+     FAIR      50  48  93 CALM      30.22F
NORTH VERNON + MOCLDY    48  46  93 CALM      30.21F
SEYMOUR +      MOCLDY    52  50  93 N3        30.19F

$$





USA.gov is the U.S. government's official web portal to all federal, state and local government web resources and services.